{"data":{"norad_id":42958,"epoch":"2026-05-25T03:14:06.495360Z","epoch_age_seconds":56777,"freshness":"FRESH","line1":"1 42958U 17061D   26145.13479740  .00000214  00000+0  69439-4 0  9997","line2":"2 42958  86.3990  34.8896 0002293  90.7613 269.3846 14.34219449451497","mean_motion":14.34219449,"eccentricity":0.0002293,"inclination_deg":86.399,"raan_deg":34.8896,"arg_perigee_deg":90.7613,"mean_anomaly_deg":269.3846,"bstar":6.9439e-5,"rev_number":45149,"period_min":100.40304508519,"perigee_km":776.02067849991,"apogee_km":779.30232769343,"semimajor_km":7155.7985030967,"source":"CELESTRAK","updated_at":"2026-05-25T13:38:14.802711Z"}}